Starlink 11142

operational
NORAD ID: 59957 Int'l Des: 2024-107 Owner: SPXS Country: US Constellation: starlink
LEOCIRCULAR

Starlink 11142について

説明を読み込み中...

リアルタイム位置

3D地球を読み込み中...

次回通過

高度履歴

Altitude vs Time

uPlot chart will show altitude changes over time

軌道要素

1 59957U 24107N 25307.83735889 -.00000425 00000-0 13497-5 0 9998
2 59957 53.1585 151.3603 0000934 99.2859 260.8264 15.69705372 82396
Epoch: Nov 3, 2025 • Age: 12 hours

現在のステータス

高度 362.7 km
速度 7.69 km/s
衛星直下点 -9.80°S, 26.41°W
打ち上げ日 Jun 5, 2024
運用期間 1.4 years
タイプ internet

技術仕様

分類 Payload
質量 960.00 kg
乾燥質量 910.00 kg
総質量 960.00 kg
長さ 0.30 m
直径 4.10 m
スパン 29.00 m
形状 Box + pan
製造者 SPXS
バスタイプ Starlink V2MD
フェーズステータス In Orbit
所有者/国 SPXS/US

大規模コンステレーション

Loading constellations...